RH
79 76 74 70 66 61 56 51 45 40 34 29 24 20 16 12 10 8 7 6 6 5 4 4 4 4 4 5 5 5 6 6 6 6 7 7 8 8 8 8 9 10 10 10 11 12 12 13 14 14 14 15 16 16 17 18 18 19 20 20 20 20 20 20 20 20 20 20 21 21 21 20 20 20 20 21 21 23 27 28 32 35 31 28 28 32
78 74 71 67 62 57 51 45 40 35 30 24 20 16 12 10 8 7 6 5 5 5 4 4 4 5 5 5 5 6 6 6 7 7 8 8 8 9 10 10 11 12 12 13 13 14 15 15 16 16 17 18 18 19 19 20 20 21 21 21 21 21 21 21 21 21 21 21 20 20 20 20 20 20 20 21 24 26 28 29 33 35 33 32 35 39
76 72 68 63 58 51 45 40 35 30 26 21 17 13 10 8 7 6 5 5 5 5 5 5 5 5 5 6 6 6 7 7 8 8 8 9 10 11 12 12 13 14 14 15 15 16 17 18 18 19 19 20 20 20 20 20 20 20 20 20 21 21 21 21 21 21 20 20 20 20 20 20 20 20 21 21 26 30 27 33 38 42 41 40 44 48
73 69 64 58 52 46 40 36 31 26 22 17 13 10 8 7 6 5 5 5 5 5 5 5 5 5 6 6 6 7 7 8 8 9 10 11 12 13 14 14 15 15 16 17 17 18 19 20 20 20 20 20 20 20 20 20 19 19 19 20 20 20 20 21 21 21 21 21 22 22 22 22 21 21 21 22 30 40 42 48 52 53 52 49 52 57
70 65 60 54 47 42 36 32 28 23 18 14 10 8 7 6 5 5 5 4 5 5 5 5 6 6 6 7 7 8 8 8 10 10 12 13 14 16 16 16 16 17 18 18 19 20 20 20 20 20 20 20 19 19 18 18 18 19 19 20 20 21 21 22 23 23 24 24 24 24 24 24 24 23 22 23 27 33 36 42 44 45 46 47 51 55
66 61 55 49 43 38 34 29 24 19 14 11 8 7 6 5 5 5 4 5 5 5 5 6 6 6 7 8 8 8 10 10 11 13 15 16 17 17 17 17 18 19 20 20 21 21 21 20 20 20 19 18 18 18 18 19 19 20 20 21 22 23 24 24 25 26 26 27 27 27 28 27 27 26 26 24 24 23 24 26 28 30 32 37 40 44
62 57 50 44 40 35 30 26 20 15 11 8 7 6 5 5 5 5 5 5 5 6 6 6 6 7 8 8 9 10 10 12 14 16 18 18 18 18 18 18 19 20 21 21 21 21 21 20 20 19 19 18 19 19 19 20 21 22 22 24 24 26 26 27 28 29 29 30 31 31 32 32 32 31 30 29 28 27 26 27 28 29 31 34 36 38
58 52 47 42 37 32 26 21 16 12 8 7 6 5 5 5 5 5 5 5 6 6 6 7 7 8 8 10 10 11 12 15 17 18 20 19 18 18 18 18 19 20 21 21 21 21 20 20 20 19 19 20 20 21 21 22 23 24 26 27 28 29 30 31 31 32 32 33 34 34 35 36 36 36 35 34 33 33 32 32 32 33 34 35 36 37
56 50 45 40 35 28 22 17 12 9 7 6 5 5 5 5 5 5 5 6 6 7 7 8 8 9 10 10 11 13 15 18 20 21 21 20 18 18 18 19 20 21 22 22 22 22 21 21 21 21 21 22 23 24 24 26 26 28 30 31 32 33 34 34 35 36 36 36 37 37 38 38 39 39 39 39 38 38 37 37 37 37 37 37 37 37
53 48 43 37 31 24 18 13 10 7 6 5 5 5 5 5 5 6 6 6 7 8 8 9 10 10 10 11 13 15 18 20 23 23 22 20 18 18 19 21 22 22 23 23 23 23 22 22 23 24 24 26 26 27 28 30 31 32 34 35 36 37 38 39 40 40 40 40 41 41 42 42 42 42 42 42 42 42 41 40 40 39 39 38 38 38
51 46 40 33 26 19 14 10 7 6 5 5 5 5 5 6 6 6 7 7 8 8 10 10 10 11 12 12 14 17 21 23 24 24 22 20 19 20 21 23 24 24 24 24 24 24 24 24 26 27 28 29 30 32 33 34 35 36 38 39 40 42 42 43 44 46 46 47 48 48 48 48 47 47 47 46 46 45 45 44 44 43 43 42 42 42
49 42 35 27 20 14 10 7 6 5 5 5 5 6 6 7 7 8 8 8 9 10 10 11 12 12 13 14 16 20 24 26 25 24 21 20 21 22 24 24 24 25 25 24 25 26 26 27 29 31 33 34 35 36 37 38 39 40 41 42 44 46 47 49 50 52 53 54 55 56 56 56 56 56 55 54 54 53 53 53 52 52 51 50 50 50
44 36 28 21 14 10 7 6 5 5 5 6 6 6 7 8 8 9 10 10 10 11 12 12 13 13 14 16 19 23 27 28 26 24 22 22 24 25 26 26 26 25 25 25 26 26 28 31 33 36 38 39 40 40 40 41 42 42 44 46 48 50 52 54 55 57 58 60 60 61 62 62 62 62 61 60 60 60 59 58 58 57 57 56 56 55
37 28 21 15 10 7 6 5 5 5 6 6 7 8 8 8 10 10 11 11 12 12 13 14 14 14 15 18 23 28 32 31 29 26 24 25 27 28 28 27 26 26 26 26 27 29 32 35 38 40 42 44 44 44 44 44 44 45 47 49 51 53 55 57 58 60 60 61 61 62 62 62 62 61 60 60 58 58 57 56 55 54 53 52 51 50
29 22 14 10 7 6 5 5 6 6 6 7 8 8 10 10 11 11 12 12 13 14 14 15 15 16 17 22 28 33 36 36 32 29 26 27 30 31 31 29 28 27 27 28 30 33 36 40 43 46 48 48 48 48 46 46 46 47 49 51 54 56 57 58 58 59 59 59 58 58 58 58 57 56 55 54 52 51 50 49 48 48 47 46 46 46
22 15 10 7 6 5 5 6 6 7 8 8 9 10 10 11 12 13 14 14 14 15 16 16 16 17 20 27 34 40 42 39 36 33 29 30 32 34 34 32 30 28 28 30 34 37 40 45 48 51 52 52 52 50 49 48 48 49 50 53 55 56 57 57 57 57 56 55 55 54 54 53 52 51 50 49 49 48 48 48 49 50 52 53 55 56
16 10 7 6 5 5 6 6 7 8 8 10 10 11 12 12 13 14 14 15 16 17 18 18 18 20 24 33 40 46 46 42 39 35 33 33 35 36 36 34 32 30 30 33 36 40 44 48 52 54 55 55 54 52 50 49 49 50 51 53 54 55 56 55 54 53 52 52 52 52 52 52 51 50 50 50 50 51 52 56 60 64 67 70 72 74
11 8 6 5 6 6 7 8 8 9 10 11 12 12 13 14 14 15 16 17 18 18 19 20 22 26 33 41 47 50 49 45 41 38 36 37 38 39 39 36 34 32 31 34 38 43 47 51 54 56 57 56 54 52 51 50 49 50 50 52 53 53 52 52 51 51 51 51 52 53 53 53 53 53 52 53 55 58 65 71 74 76 78 78 78 78
8 6 6 6 7 8 8 8 10 10 12 12 13 14 14 15 16 16 18 18 19 20 20 22 27 35 44 51 54 53 51 47 44 42 40 40 42 42 40 38 35 33 32 36 40 44 49 52 54 56 56 55 53 51 50 48 48 48 48 49 50 50 50 49 50 50 52 53 54 55 55 55 55 55 54 57 62 70 77 78 78 78 78 77 77 76
6 6 6 7 8 8 9 10 11 12 13 14 14 15 16 16 17 18 19 20 20 22 23 28 36 45 54 58 58 55 52 50 48 46 45 45 45 45 43 40 36 33 33 36 41 46 50 52 54 54 53 52 50 48 46 45 45 44 45 45 46 46 48 49 50 52 54 56 57 57 56 56 56 55 54 60 68 75 77 77 77 77 78 77 76 76
6 6 7 8 9 10 10 11 12 13 14 15 16 16 17 18 18 19 20 21 22 24 29 38 47 56 62 62 60 58 56 54 53 52 50 49 48 47 45 42 38 35 34 37 42 47 51 52 52 51 49 47 45 43 42 42 42 42 42 42 43 45 47 49 52 54 56 57 57 57 56 56 56 55 53 57 64 72 76 76 76 76 76 76 76 76
7 8 8 9 10 11 11 12 13 14 16 16 17 18 18 19 20 20 22 23 27 33 42 52 60 66 68 66 64 62 60 60 60 58 57 54 52 50 46 42 39 36 35 38 42 48 51 52 50 48 45 42 40 40 39 39 39 40 40 41 43 45 48 50 52 54 56 56 56 56 56 57 57 57 56 55 56 59 62 65 67 69 70 72 74 76
8 8 9 10 11 12 12 14 14 16 17 17 18 18 19 20 21 23 25 30 38 46 58 66 70 72 70 69 68 68 66 66 66 65 64 61 57 53 48 44 40 36 36 40 44 48 51 50 47 44 40 39 38 38 38 38 39 40 40 42 44 46 48 50 51 53 54 55 56 57 58 58 60 60 60 58 56 55 54 54 54 55 56 58 62 66
9 10 10 11 12 13 14 15 16 17 18 18 18 20 21 24 27 32 36 44 53 63 72 74 75 74 73 74 74 74 73 72 71 71 69 66 61 56 49 44 40 37 36 40 46 50 50 47 44 41 38 37 37 38 39 40 40 42 42 44 45 46 47 48 50 52 53 54 56 58 60 60 61 61 60 59 58 56 54 53 52 51 50 51 53 55
10 10 11 12 13 14 16 16 17 18 18 20 22 24 27 33 40 47 54 62 70 76 77 76 76 76 76 77 78 78 77 76 75 74 73 69 63 56 48 43 40 38 38 42 46 50 49 44 41 39 37 37 38 40 42 42 43 44 44 44 44 45 46 48 50 52 54 56 58 59 60 61 61 60 60 58 56 55 54 54 53 52 52 51 52 52
10 11 12 14 15 16 17 18 19 21 23 27 34 40 43 50 58 65 71 76 80 80 79 78 77 77 78 79 79 79 79 78 77 76 74 70 62 54 45 42 40 39 39 43 47 49 47 42 39 38 38 39 41 43 45 45 45 44 44 43 44 44 46 48 51 54 56 58 59 60 61 61 60 60 58 57 56 54 54 53 52 52 52 51 52 52
12 14 15 16 17 18 19 21 23 26 31 36 46 56 60 64 68 72 76 79 80 79 78 78 79 79 79 80 80 80 80 80 78 76 72 67 59 51 44 42 40 40 40 44 48 48 45 40 38 38 39 41 43 46 47 46 45 44 43 43 44 46 48 51 53 56 58 60 60 61 61 61 61 60 60 58 57 56 55 54 52 51 50 50 50 51
16 17 18 19 20 21 22 24 27 30 34 36 42 50 57 58 60 63 68 72 74 76 78 80 82 82 82 80 80 79 80 79 77 74 69 62 54 47 43 42 42 41 42 46 48 48 43 39 38 39 40 43 45 46 47 46 44 43 42 44 46 48 51 53 55 57 58 60 60 61 62 62 62 62 62 61 60 59 58 56 54 51 49 48 48 49
18 19 22 23 24 26 27 30 33 36 38 38 39 42 45 46 51 58 65 70 74 78 81 82 83 83 83 81 80 78 78 77 74 70 64 57 50 45 44 43 42 42 44 47 48 46 40 37 37 39 42 44 45 46 45 44 42 42 42 45 48 51 53 55 57 58 59 60 60 61 62 62 63 63 64 63 62 62 60 58 56 52 48 47 46 46
18 19 22 26 28 30 33 36 40 42 43 44 43 44 45 52 60 69 74 77 79 81 82 82 83 82 82 80 78 78 76 74 71 66 60 53 48 46 45 44 43 44 46 50 49 46 38 34 34 37 41 44 45 45 44 42 42 42 42 46 49 52 55 56 58 58 58 60 60 61 62 63 64 64 64 64 64 63 62 60 57 53 49 46 45 44
20 20 22 25 29 34 39 43 46 48 49 49 49 50 53 62 71 77 80 82 82 82 82 82 82 81 80 78 78 77 76 72 67 61 55 51 49 48 47 46 44 45 49 53 53 48 38 31 30 34 40 43 44 44 43 42 42 42 43 46 50 53 56 57 58 58 58 59 60 62 63 64 64 65 65 65 64 64 62 60 57 54 49 46 44 43
22 23 24 26 29 34 42 51 56 59 59 58 57 57 58 64 69 74 78 81 83 84 83 83 82 81 80 79 78 77 75 70 64 58 54 52 51 50 48 47 46 47 51 56 56 51 42 32 29 32 38 42 44 44 44 44 43 43 44 46 50 54 57 58 58 58 58 60 60 62 63 64 64 64 65 65 64 63 61 59 56 53 50 46 44 43
24 24 25 26 28 33 40 52 62 68 71 70 69 67 66 65 65 66 68 74 80 84 84 84 82 81 79 78 76 74 71 66 61 57 55 54 54 52 50 48 47 48 52 57 57 52 44 35 31 32 37 42 44 45 45 44 44 44 45 48 51 54 57 58 59 60 60 60 61 62 62 62 63 63 64 63 62 61 58 57 54 52 50 48 46 43
25 26 26 28 29 31 35 43 54 64 72 74 76 74 73 71 70 69 69 73 76 79 80 80 80 77 74 73 71 68 65 62 60 58 57 57 56 54 52 49 48 50 53 57 56 51 42 36 34 34 38 42 44 46 46 45 44 44 46 48 52 56 58 60 60 60 60 61 61 60 60 60 60 61 61 61 60 58 56 55 54 52 52 50 48 45
26 26 27 28 30 31 33 37 44 53 64 71 75 76 74 74 74 74 74 75 75 76 76 76 74 71 68 67 66 66 65 64 62 60 58 60 58 56 53 50 49 51 55 58 56 49 40 36 34 36 39 42 44 47 48 46 45 44 45 49 54 58 60 61 61 61 61 60 60 59 58 58 59 60 60 60 58 57 56 54 54 54 53 52 50 47
26 27 28 29 30 32 34 37 42 48 56 66 72 76 76 76 78 78 79 78 78 77 76 74 71 70 70 71 71 70 68 64 61 60 60 61 60 58 53 50 50 52 57 58 55 48 39 34 34 37 40 43 45 46 46 45 43 43 44 49 55 60 63 64 63 62 61 60 59 58 58 58 59 60 60 60 59 58 56 56 55 54 54 53 51 49
28 29 30 31 33 35 36 39 42 47 53 60 69 76 77 80 81 82 81 80 78 76 74 73 72 73 74 74 73 70 66 62 60 60 62 62 61 58 53 50 50 54 59 60 55 47 38 34 33 36 40 44 46 46 44 42 40 40 42 48 55 61 65 65 65 64 62 61 60 60 60 60 60 60 61 61 60 58 56 55 54 53 52 52 51 51
29 31 32 34 36 38 40 42 44 47 51 58 66 74 78 80 82 82 81 80 78 77 76 76 77 76 75 72 70 67 64 61 60 62 64 63 60 57 53 50 52 55 60 60 55 47 38 34 34 36 40 42 44 45 43 40 36 36 39 47 56 62 66 66 65 64 63 62 62 62 61 60 60 62 63 62 60 57 54 52 51 50 50 50 51 53
31 33 35 38 40 42 44 45 46 47 49 55 61 68 73 76 79 81 81 80 80 80 79 78 77 76 74 71 68 66 63 62 62 64 65 63 60 56 52 51 53 57 62 60 55 47 39 36 36 38 40 41 42 42 40 37 35 35 38 46 55 62 66 66 65 64 64 65 64 62 60 60 60 63 66 65 62 58 54 51 49 48 48 49 52 55
34 36 38 40 43 46 47 48 48 49 49 51 55 59 64 69 74 78 80 81 81 80 79 78 76 75 73 70 68 65 62 63 64 65 65 62 58 55 52 52 55 59 62 60 54 46 40 38 38 39 40 40 39 37 36 35 35 36 40 46 54 60 63 64 64 65 67 67 66 63 60 58 60 64 68 69 67 64 60 55 52 50 50 53 55 58
36 38 41 44 46 49 50 51 51 51 51 50 51 52 54 58 64 69 73 74 76 76 76 76 76 74 73 70 67 65 64 66 67 66 65 61 57 54 52 54 57 61 62 58 52 45 40 38 39 40 40 39 37 35 34 35 37 40 44 49 53 57 60 62 65 67 69 69 66 63 60 59 61 65 70 72 71 69 66 62 58 55 55 57 60 62
40 42 45 48 50 52 52 53 53 52 52 51 50 49 49 50 53 57 61 65 68 71 74 76 76 74 72 68 67 67 68 69 68 66 63 60 56 53 52 55 59 62 62 56 49 42 39 39 40 40 40 37 35 34 33 36 40 44 50 53 54 56 58 62 66 70 71 69 66 64 61 61 63 67 72 74 74 73 70 67 64 61 60 62 64 66
44 47 50 52 54 54 54 54 53 53 52 51 51 52 53 56 59 62 66 70 73 76 77 77 76 74 71 69 70 70 71 70 68 65 62 58 55 53 53 57 60 62 60 52 45 40 37 39 40 40 40 37 35 34 34 37 42 48 54 57 57 57 58 62 66 68 69 68 67 66 64 64 67 71 76 79 79 76 73 70 67 66 66 68 70 73
48 51 54 55 56 56 55 55 54 54 54 55 57 60 64 68 71 74 77 79 80 79 78 76 74 73 72 72 72 71 70 68 65 63 60 57 54 54 55 59 62 62 58 48 40 36 34 36 38 40 39 37 36 35 36 39 44 51 57 60 61 62 65 67 68 68 66 66 67 68 68 69 72 75 78 82 82 79 75 71 70 70 73 76 77 78
53 55 57 57 57 57 57 57 57 57 58 60 65 71 76 78 80 81 81 81 80 79 78 76 75 74 74 73 70 67 66 64 62 61 58 56 55 55 57 61 63 61 54 44 37 33 32 33 35 36 38 37 37 37 38 42 48 54 58 62 65 68 72 74 74 73 71 69 69 70 70 72 74 77 80 83 83 81 76 74 74 76 78 80 82 82
56 58 58 58 58 58 59 60 61 62 64 68 73 78 82 82 82 81 81 80 80 79 77 76 76 76 74 69 66 63 62 61 60 58 57 55 55 56 60 63 63 60 51 42 35 31 30 32 32 34 35 36 37 39 41 46 52 56 60 64 68 72 76 79 81 80 78 76 74 73 73 74 76 79 82 84 84 82 78 77 78 80 82 84 84 85
58 58 58 58 58 60 61 64 65 67 68 72 76 80 82 82 82 82 82 82 81 81 80 78 75 72 68 64 62 60 58 58 57 56 54 54 54 57 62 64 62 57 47 40 35 32 31 30 31 32 33 35 37 40 45 51 56 59 62 66 70 74 77 81 83 84 83 81 79 77 76 75 76 79 83 85 85 84 81 81 82 84 85 85 86 86
60 60 58 58 59 61 64 67 69 70 71 72 76 80 82 82 83 83 83 82 81 80 77 74 70 66 63 61 59 58 57 56 55 54 53 52 54 58 63 64 60 53 44 39 36 34 32 31 30 31 32 35 38 42 49 55 60 63 67 70 73 74 77 81 83 84 84 84 83 82 80 79 79 80 84 85 86 85 84 84 85 85 86 86 86 86
62 60 59 60 61 64 68 70 71 72 74 76 79 81 82 82 82 82 82 80 78 76 72 69 65 62 60 58 57 56 56 55 54 53 52 52 55 59 63 61 56 48 42 39 37 36 34 31 31 32 33 37 42 47 53 59 63 67 71 74 74 76 78 82 84 85 85 84 84 84 84 84 84 84 86 86 86 86 86 86 86 86 86 86 86 86
63 62 60 62 65 68 70 71 72 74 77 80 82 83 83 82 82 80 78 76 73 71 68 64 62 60 58 57 56 55 55 55 54 54 52 53 57 60 62 56 49 42 39 38 38 38 36 33 32 33 35 40 46 52 57 62 66 70 74 76 78 79 81 83 85 85 85 84 84 85 86 86 86 86 86 86 86 86 86 86 86 86 86 86 86 86
64 63 63 65 68 71 72 72 73 76 81 82 83 83 82 80 78 76 74 72 70 67 64 62 60 58 58 57 56 56 56 56 55 54 53 55 59 61 59 51 43 38 36 36 36 37 37 34 33 34 38 44 51 57 60 63 66 70 74 78 80 82 84 84 85 85 85 85 85 85 85 86 86 86 86 86 86 86 86 86 86 86 86 86 86 86
Wind_Speed
40 41 42 43 44 44 44 44 44 44 44 44 45 45 45 45 46 46 47 48 49 50 50 50 50 50 49 49 48 48 47 47 46 46 46 45 45 45 45 46 46 46 46 46 46 46 45 45 45 45 45 45 46 46 46 47 47 48 49 49 49 50 50 50 49 49 49 48 48 47 47 47 46 46 46 46 46 46 44 44 43 43 44 43 42 41
42 43 44 45 46 46 46 45 45 45 46 46 46 46 46 46 47 47 48 48 49 49 49 49 49 49 48 48 47 46 46 45 45 44 44 44 44 44 44 44 44 44 44 44 44 44 44 44 44 44 44 45 45 45 45 46 46 46 47 47 48 48 48 49 49 48 48 48 47 47 47 46 46 45 45 45 45 44 43 43 43 43 43 42 41 40
44 45 46 47 47 47 47 47 47 47 47 47 47 47 47 47 48 48 48 48 48 48 48 48 48 48 47 47 46 45 44 44 43 43 42 42 42 42 42 42 42 42 42 42 42 42 42 42 43 43 43 44 44 44 44 44 45 45 45 45 46 46 47 47 47 47 48 47 47 46 46 45 45 44 44 44 43 42 42 42 41 42 42 41 40 39
46 47 48 48 49 48 48 48 48 48 48 48 48 48 48 48 48 49 49 49 48 48 48 48 47 47 46 46 45 44 43 42 42 41 41 41 41 41 41 41 41 41 40 40 40 41 41 41 41 42 42 42 43 43 43 43 43 44 44 44 45 45 45 46 46 46 46 46 46 46 45 44 44 44 44 43 41 40 39 39 39 39 39 39 38 38
47 48 49 49 49 49 49 49 49 50 50 50 49 49 49 49 49 50 50 49 49 48 47 47 47 46 45 44 43 42 42 41 41 41 40 40 40 40 40 40 40 39 39 39 39 39 40 40 40 41 41 41 41 42 42 42 43 43 43 44 44 44 44 45 45 45 45 45 45 45 44 44 43 43 43 42 41 40 40 39 40 40 40 39 39 39
49 50 50 50 50 50 50 50 51 51 51 51 50 49 49 49 50 50 50 50 49 48 48 47 46 46 44 43 42 41 41 40 40 40 40 39 39 39 39 39 38 38 38 38 38 39 39 39 39 40 40 41 41 41 42 42 43 43 43 43 44 44 44 44 43 43 43 44 44 43 43 43 43 43 43 43 43 42 42 42 42 42 42 42 42 42
50 50 51 51 51 51 51 51 51 51 51 51 51 51 50 50 51 51 51 50 49 48 48 47 46 45 43 42 41 41 40 40 40 39 39 39 39 39 38 38 38 37 37 38 38 38 38 39 39 40 40 41 41 42 42 43 43 43 43 43 43 43 42 42 42 42 42 42 42 42 42 42 42 42 42 42 42 42 42 42 42 42 43 43 44 44
51 51 51 51 52 53 53 52 52 52 52 52 51 51 51 51 51 51 51 50 49 48 48 47 46 44 42 41 40 40 40 40 39 39 39 39 39 38 38 37 37 37 37 37 38 38 38 39 40 40 41 42 42 43 43 43 43 43 43 42 42 41 41 40 40 40 39 39 39 39 39 39 40 40 41 41 41 42 42 42 42 43 43 43 44 44
51 51 52 52 52 53 53 53 53 52 52 52 52 51 51 52 52 52 51 50 49 48 47 46 45 44 42 40 39 39 40 40 39 39 39 39 39 38 38 38 37 38 38 38 38 39 39 40 41 41 42 43 43 43 44 43 43 42 41 40 39 39 38 38 37 37 37 37 36 36 36 37 37 38 38 39 39 40 41 41 42 42 43 43 44 44
51 51 52 52 53 53 53 53 53 53 52 52 52 52 51 52 52 52 52 50 48 47 46 45 44 43 42 41 40 39 39 40 40 39 39 39 39 39 38 38 38 38 39 39 39 40 40 41 42 42 43 43 43 43 43 42 41 40 39 37 36 36 35 35 34 34 33 33 33 33 33 33 34 34 35 36 36 37 38 39 40 41 41 42 43 43
51 52 52 53 53 53 53 53 53 53 53 53 53 53 53 52 51 51 51 50 48 47 46 45 44 42 42 41 41 40 39 39 40 40 39 39 39 38 38 38 39 39 39 39 40 40 41 41 42 42 42 42 42 42 42 41 39 37 36 35 33 33 32 31 31 30 30 30 30 30 29 30 30 30 31 32 32 33 34 35 36 37 38 38 39 39
51 52 52 53 53 53 53 53 53 53 53 53 53 53 52 52 51 50 49 49 47 46 45 45 44 42 41 40 41 41 40 40 40 40 40 39 39 39 39 39 39 39 39 40 40 40 41 41 41 41 41 41 41 40 40 38 37 35 33 32 31 30 29 28 28 27 27 27 26 26 26 26 27 27 28 28 29 29 30 31 32 32 33 34 34 34
52 52 52 53 53 53 52 52 53 53 53 53 52 51 51 51 50 49 48 47 46 45 45 44 44 42 41 40 40 41 41 41 41 40 40 39 39 39 39 40 40 40 40 40 40 40 40 40 40 39 39 39 39 38 38 36 35 33 31 30 29 28 27 26 26 25 25 24 24 24 24 24 24 25 25 25 26 26 27 28 28 29 30 30 30 31
52 53 53 53 53 53 53 53 52 53 53 52 52 51 50 49 48 47 47 46 46 45 45 44 43 42 41 40 40 40 41 41 41 41 40 39 39 39 40 41 41 41 41 41 40 40 39 39 38 37 37 37 37 37 36 35 33 31 30 28 27 26 25 25 24 23 23 23 23 22 22 22 23 23 24 24 25 25 25 26 26 27 27 28 28 28
53 54 54 54 54 53 53 53 53 53 52 52 51 50 49 48 47 46 46 46 46 45 44 44 43 42 41 40 40 40 41 41 41 41 40 39 39 39 40 41 42 41 41 41 40 39 38 37 36 35 35 35 36 36 35 34 32 30 29 27 26 25 24 23 23 22 22 22 22 22 22 22 22 23 23 23 24 24 24 24 25 25 25 25 25 25
55 55 55 55 54 54 53 53 52 52 52 51 50 48 47 47 46 46 45 45 45 45 44 43 43 43 42 40 39 39 40 41 41 41 40 39 39 40 41 42 43 42 41 40 39 37 36 35 34 34 34 34 35 35 34 34 32 30 28 26 25 24 23 22 22 22 22 21 21 21 21 22 22 22 23 23 23 23 23 22 22 22 23 23 23 23
55 55 55 55 55 54 54 53 52 51 50 50 49 48 47 46 46 45 45 45 45 45 44 43 43 42 42 41 40 39 39 40 41 41 40 39 39 40 41 43 43 43 41 39 37 36 34 33 33 33 33 34 34 34 34 33 32 30 28 26 24 23 22 22 21 21 21 21 21 21 21 21 22 22 22 21 21 21 20 20 21 22 23 24 24 24
55 55 55 54 54 54 53 53 52 51 50 49 48 48 47 46 45 45 45 44 44 44 44 43 42 41 41 40 40 40 40 40 41 41 40 39 39 40 41 43 43 43 41 38 36 34 33 32 32 32 33 33 34 34 33 33 31 29 27 25 23 22 22 21 21 21 21 20 20 20 20 21 21 21 20 20 19 19 19 21 22 23 24 24 25 25
54 54 54 53 53 53 53 51 50 49 48 48 47 47 46 46 45 44 44 44 44 43 43 42 41 41 40 40 40 40 40 40 41 41 41 40 40 40 42 43 43 42 40 38 36 34 32 32 32 32 33 33 33 33 33 32 30 28 26 24 23 22 21 21 21 20 20 20 20 20 20 20 20 19 19 18 17 18 20 21 22 23 23 24 24 25
54 54 53 52 52 52 52 50 49 48 47 47 46 45 45 44 44 43 43 43 43 43 42 41 40 40 39 39 39 40 40 41 41 41 41 40 40 41 43 44 44 43 41 38 35 33 32 32 32 32 32 32 32 32 32 30 29 27 25 23 22 21 21 20 20 20 19 19 19 19 19 19 19 19 18 17 17 19 20 21 22 22 23 23 24 24
53 53 52 52 51 51 50 49 48 46 46 45 45 45 44 44 43 43 42 42 42 42 42 41 40 39 39 39 39 40 40 41 42 42 42 41 41 42 43 44 44 43 41 38 35 33 32 31 32 32 32 32 31 31 30 29 27 25 24 22 21 21 20 20 20 19 19 18 18 19 19 19 19 19 18 17 17 17 18 19 20 21 21 22 22 23
52 52 52 51 50 49 49 48 46 45 44 44 44 44 44 43 43 42 42 41 41 41 41 41 40 40 39 39 39 40 41 42 42 43 43 43 43 43 44 45 44 43 40 37 34 32 31 31 31 31 31 30 30 29 28 27 25 24 23 22 21 21 21 20 19 19 18 18 18 19 19 20 20 20 20 19 18 18 18 18 19 20 20 21 21 22
51 51 51 50 49 48 47 46 45 44 43 43 43 43 42 42 41 41 41 41 41 41 40 40 40 40 40 40 41 41 42 42 43 43 44 44 44 44 44 45 44 42 40 37 34 32 31 30 30 29 29 29 28 27 26 25 24 23 23 22 22 21 21 20 19 19 18 18 18 19 20 20 21 21 21 21 20 20 20 20 20 21 21 22 22 23
50 50 49 48 47 46 45 44 44 43 42 42 42 41 41 40 40 40 39 40 40 40 39 39 40 40 41 41 42 42 42 43 43 44 44 45 45 45 45 45 44 42 39 36 34 31 30 29 28 27 27 26 25 24 24 23 23 23 23 22 22 22 21 21 20 19 19 19 19 20 20 21 21 21 22 22 22 22 22 22 22 22 22 22 22 23
49 48 47 46 45 44 43 43 42 41 41 41 40 40 39 39 38 38 38 38 38 38 38 38 39 41 42 42 42 42 42 43 44 44 45 45 46 45 45 44 43 41 38 35 33 31 29 27 26 25 25 24 23 23 23 23 23 23 23 22 22 22 22 21 20 20 19 19 20 20 21 21 21 22 22 22 23 23 23 23 23 23 23 23 23 23
48 47 46 45 44 43 42 41 41 40 40 39 39 38 38 37 37 37 37 35 34 35 36 38 40 41 42 42 42 41 41 43 44 45 45 46 46 45 44 43 42 40 38 35 32 30 28 25 24 23 22 22 21 21 22 22 22 23 23 23 22 22 22 21 21 20 20 20 20 20 21 21 21 22 23 23 24 24 25 25 25 25 24 24 24 23
47 46 45 44 42 42 41 40 40 39 39 38 37 37 36 36 36 35 34 33 32 33 35 37 40 42 43 43 42 41 41 43 44 45 45 46 45 44 43 42 40 39 37 34 31 29 27 24 22 21 20 20 20 20 21 22 22 22 22 22 22 22 22 22 21 21 20 20 20 20 21 21 22 23 24 25 26 26 27 27 27 26 26 26 25 24
45 43 42 41 41 40 40 39 39 39 38 38 37 36 35 35 34 33 33 33 33 33 34 36 39 42 43 43 42 41 42 43 44 45 45 45 44 43 41 40 39 38 37 34 30 27 25 22 20 19 19 19 19 20 20 21 21 22 22 22 22 22 22 22 21 21 21 20 20 20 20 21 22 23 25 26 27 28 28 29 29 28 28 27 26 26
43 41 39 39 38 38 38 38 37 37 37 37 37 36 36 35 34 33 33 33 32 31 32 34 38 41 42 41 42 42 42 43 44 44 45 44 43 41 40 39 39 38 36 34 30 26 23 20 18 18 17 18 18 19 20 20 21 21 21 21 22 22 22 22 22 21 20 20 20 20 20 21 22 24 25 26 27 28 29 29 30 30 29 28 27 26
42 39 38 37 37 37 36 35 35 35 35 35 35 36 35 34 33 32 32 31 29 29 31 33 36 38 40 41 42 42 42 42 43 44 44 42 41 39 38 38 38 38 36 34 31 27 22 18 17 16 17 17 18 19 19 20 20 21 21 21 21 22 22 22 21 21 20 20 19 20 20 21 23 24 25 26 27 28 29 30 30 30 30 29 28 27
42 40 39 38 37 36 36 34 33 32 32 32 33 33 33 32 31 30 30 30 29 30 31 33 35 37 38 40 41 41 41 42 43 43 42 40 38 37 37 38 38 37 36 34 33 30 26 21 17 15 15 16 17 18 19 20 20 21 21 21 21 22 22 21 21 20 20 19 19 20 21 22 23 24 25 26 27 28 29 29 30 30 30 29 28 26
42 41 40 39 38 37 35 34 33 32 31 31 31 32 31 31 30 30 30 30 30 31 32 34 35 36 37 38 39 40 41 41 42 41 39 37 36 36 37 38 38 37 35 33 32 30 28 25 20 17 15 15 16 17 18 19 20 21 21 21 21 21 21 21 21 20 19 19 19 20 20 21 23 24 25 26 27 28 28 29 29 30 30 29 28 26
41 41 40 39 38 37 35 34 33 32 32 32 31 31 31 31 31 31 30 30 30 31 32 33 34 35 37 38 39 40 41 40 39 38 37 35 35 36 37 38 38 36 34 32 30 29 28 26 23 19 16 15 15 17 18 19 20 21 21 21 21 21 21 21 20 20 19 19 19 19 20 21 22 23 25 26 27 27 28 28 28 28 28 28 27 26
40 40 39 39 38 37 35 33 32 32 32 32 32 31 31 30 30 30 29 29 29 30 32 33 35 36 38 39 39 39 38 37 36 35 35 35 35 37 38 38 38 36 33 31 29 27 26 25 23 20 18 15 15 16 18 19 20 21 21 21 21 21 21 21 20 20 19 19 19 20 20 21 22 23 24 25 26 27 27 27 26 26 26 26 26 25
39 39 38 38 38 37 35 34 33 32 32 32 31 31 31 30 30 29 29 29 29 30 31 33 34 36 36 37 36 35 34 33 33 34 34 34 35 37 38 38 37 35 33 30 28 27 25 23 22 20 19 17 16 16 17 18 20 20 20 21 21 21 21 21 20 20 19 19 20 20 21 22 22 23 24 25 25 25 25 24 24 23 23 23 24 24
39 38 38 38 37 36 36 34 33 32 31 31 31 31 30 29 29 28 28 28 28 29 30 31 32 32 32 32 31 31 31 32 32 33 33 34 36 37 38 38 37 34 32 30 28 26 25 23 21 20 19 18 17 17 17 18 19 19 19 20 20 20 20 20 20 20 20 20 20 21 22 22 23 23 24 24 23 23 22 22 21 21 20 20 21 22
39 38 38 37 37 36 35 35 34 32 31 31 30 30 29 28 27 27 27 27 28 28 29 29 29 29 29 30 30 30 31 31 32 32 33 34 36 37 38 38 36 33 31 29 28 26 25 23 21 19 18 18 19 19 19 19 19 18 18 18 19 19 19 20 20 20 20 20 21 22 22 23 23 23 23 22 21 21 20 19 19 18 18 18 18 19
39 38 37 36 36 35 35 34 33 32 31 31 30 30 30 29 28 28 28 29 30 30 29 29 28 28 29 30 30 31 32 31 31 31 33 35 37 37 38 37 35 32 30 28 27 26 25 23 22 20 19 18 19 19 20 20 20 19 18 18 18 18 19 19 19 20 20 21 21 22 23 23 23 22 21 21 20 19 18 17 16 16 15 15 15 16
38 37 36 35 34 34 34 33 33 32 31 31 31 31 31 31 30 31 31 32 32 31 30 29 28 28 29 30 31 32 31 31 31 32 33 35 37 37 37 36 34 31 29 28 26 25 24 23 22 21 20 20 19 19 20 20 20 19 18 17 17 17 18 18 19 19 20 21 22 23 23 22 22 21 21 21 20 19 18 17 15 14 13 13 13 13
38 36 35 34 33 33 33 32 32 31 31 31 31 32 32 32 32 33 33 34 33 32 30 29 28 29 29 30 31 31 31 30 31 32 34 35 37 37 36 34 32 30 28 27 26 24 23 22 22 21 21 21 20 20 20 20 20 20 19 18 17 16 17 17 18 19 20 21 22 23 23 22 21 21 21 20 20 20 18 17 15 13 13 12 12 12
37 35 34 33 32 32 32 31 31 31 30 30 30 30 31 31 32 33 33 33 32 31 29 28 28 28 29 30 30 30 30 30 31 32 34 35 36 36 35 33 31 29 28 26 25 24 22 22 21 21 21 21 20 20 19 19 19 19 19 19 18 17 16 16 18 19 20 21 23 23 23 22 21 21 20 19 19 19 18 17 16 14 13 13 13 13
35 34 32 32 31 31 30 30 30 30 29 29 28 28 28 28 28 29 29 28 28 27 27 26 26 27 28 28 29 29 29 30 31 32 34 35 35 34 33 32 30 28 27 25 24 23 21 21 20 20 20 20 20 19 19 18 18 18 19 18 18 16 16 16 17 19 20 22 23 23 23 23 22 20 19 18 18 17 17 16 16 15 14 14 14 14
34 32 31 31 30 29 29 29 29 28 28 27 26 25 24 23 23 22 22 22 23 24 24 25 25 26 26 27 26 27 27 29 31 32 33 34 34 33 32 30 29 27 26 25 23 22 20 19 19 19 19 19 19 19 18 17 17 17 18 18 17 17 17 17 18 19 20 22 23 23 23 23 21 20 18 17 17 16 16 15 15 14 14 14 14 14
32 31 30 29 29 28 28 28 28 27 26 25 23 22 20 19 18 17 18 19 20 21 22 23 24 25 25 25 24 25 26 28 30 31 32 33 32 32 31 29 28 26 25 24 23 21 19 18 17 17 18 18 18 18 17 17 16 16 16 16 17 17 18 19 20 21 21 22 23 23 23 22 21 19 17 16 15 15 15 14 13 13 13 13 13 13
31 30 29 28 28 27 27 27 26 26 24 22 20 17 16 16 15 15 16 18 19 21 22 23 24 24 23 23 24 25 26 27 29 30 31 31 30 30 29 28 26 25 24 24 23 21 20 18 17 16 16 16 16 16 16 16 16 15 15 15 16 17 18 20 21 22 23 23 23 23 23 22 20 18 16 15 14 14 14 13 12 12 12 12 13 13
30 29 28 27 27 26 26 25 25 24 22 19 16 14 14 14 15 16 17 19 20 21 22 22 22 22 22 23 25 26 27 28 29 29 29 28 28 27 27 26 25 24 23 23 22 21 20 18 17 16 15 15 15 15 15 15 15 15 14 14 15 16 18 19 21 22 23 23 23 23 22 20 19 17 16 14 13 13 12 12 13 13 13 13 13 14
28 27 26 26 25 25 24 24 23 22 20 16 13 13 13 14 16 17 18 19 20 20 20 20 21 22 23 25 27 28 29 30 29 29 27 26 25 25 24 23 22 22 22 22 22 21 19 18 17 16 15 14 14 14 14 14 14 14 14 15 16 17 18 19 20 20 21 21 22 22 21 19 17 16 15 13 12 11 12 12 13 14 14 14 14 14
26 26 25 24 24 24 23 22 21 20 18 14 12 12 13 14 15 17 17 18 18 19 20 21 22 24 26 28 29 30 31 30 29 28 26 24 23 22 21 20 20 20 20 20 20 20 20 18 17 15 14 14 13 13 13 13 13 14 15 16 17 18 19 19 19 19 19 19 20 20 20 19 17 15 14 12 10 10 11 12 14 14 14 14 14 13
25 24 24 23 23 22 21 20 19 17 14 12 10 11 13 14 14 15 16 18 19 21 22 24 25 27 28 30 31 31 31 30 28 26 24 23 21 20 19 18 17 17 17 18 18 19 19 18 16 14 13 12 12 11 11 11 12 13 15 16 18 19 19 18 17 17 17 18 18 18 18 17 16 15 14 13 12 11 12 13 13 13 13 13 13 13
24 23 23 22 21 21 20 18 16 14 11 9 9 11 13 13 14 15 17 19 21 23 25 26 27 29 29 30 30 30 29 27 25 23 22 21 19 18 17 16 15 15 15 15 15 17 18 18 16 13 11 10 10 10 9 9 10 12 14 16 18 18 17 17 16 16 17 17 17 17 16 15 14 13 13 14 14 14 14 14 13 13 13 13 13 12
23 22 21 21 20 19 18 17 14 11 8 8 9 11 13 14 15 17 19 20 22 24 26 27 28 29 29 29 29 27 26 24 22 21 20 19 18 16 15 14 14 14 13 13 13 13 14 16 15 13 11 8 8 8 9 9 10 12 14 16 16 16 16 15 16 16 16 16 16 15 14 14 13 14 15 16 16 16 15 14 14 14 14 14 13 12
Wind_Direction
310 311 311 312 313 314 314 315 316 317 317 318 319 319 319 319 318 318 317 317 317 317 317 316 315 315 314 313 312 312 311 310 309 308 307 306 305 305 305 304 304 304 304 305 305 305 305 305 304 304 303 303 302 301 300 300 299 299 298 298 298 298 297 297 296 296 295 294 293 292 292 291 290 290 289 288 287 287 288 287 286 285 283 281 280 279
310 311 312 312 313 314 315 316 317 317 318 319 319 320 320 319 319 318 317 317 317 316 315 315 314 313 313 312 311 310 309 308 307 307 306 306 305 305 305 305 305 305 305 305 305 305 305 304 304 303 302 301 300 300 299 298 297 297 297 296 296 296 296 296 295 295 294 294 293 292 292 291 290 289 288 287 287 287 287 286 285 285 284 283 282 281
311 312 312 313 314 315 316 317 317 318 319 320 320 320 320 319 319 318 318 317 316 315 314 313 313 312 311 311 310 310 309 308 307 306 306 306 306 305 305 305 306 306 306 306 305 305 304 303 302 301 300 300 299 298 297 297 296 296 296 295 295 295 295 295 294 294 293 293 293 292 291 291 290 289 287 286 287 288 287 286 285 284 283 282 281 281
311 312 313 313 314 315 316 317 318 319 320 320 321 321 320 319 319 318 317 317 316 315 314 312 312 311 311 310 310 309 309 308 307 307 307 307 307 307 307 307 307 307 306 305 304 303 302 301 300 299 299 298 298 298 297 297 297 296 296 295 295 295 294 294 293 293 293 293 292 292 291 290 289 288 287 286 287 288 286 285 284 282 282 280 280 279
312 313 313 314 315 316 316 318 319 320 320 320 321 321 320 319 318 318 317 317 316 314 313 312 311 311 311 311 310 310 309 309 308 308 308 308 309 308 308 308 308 307 306 305 304 302 301 300 300 299 299 299 299 298 298 298 298 297 297 296 295 295 294 293 293 292 292 292 291 291 290 289 288 288 287 286 286 284 283 282 280 279 279 279 278 278
312 313 314 315 315 316 317 318 319 320 320 320 320 320 320 319 318 317 316 316 315 314 313 312 312 312 312 312 311 311 310 310 310 310 310 310 310 310 309 309 308 307 306 305 304 303 302 302 301 301 301 301 301 301 300 300 299 299 298 297 296 295 294 293 293 292 291 290 290 289 289 289 288 288 287 287 286 285 283 282 281 280 280 279 279 278
312 313 314 315 316 317 318 319 320 320 320 320 320 320 319 318 317 316 316 315 315 314 313 313 312 313 313 313 312 312 311 311 311 311 311 311 310 310 309 309 308 307 306 306 305 305 305 305 305 305 304 304 304 303 302 302 301 300 299 298 297 296 295 294 293 291 291 290 289 289 288 288 287 287 287 287 287 287 286 286 284 283 282 281 280 279
313 314 315 316 317 317 318 319 320 320 320 319 320 319 319 318 317 316 316 316 315 314 314 313 313 313 313 313 313 312 312 312 312 312 312 311 311 310 310 310 309 309 309 309 309 309 309 309 309 308 308 307 306 305 304 303 302 301 300 299 298 297 296 295 294 293 292 291 290 289 288 288 287 287 286 286 286 287 286 286 285 284 283 282 281 280
314 315 316 317 318 318 319 319 320 319 319 319 319 318 318 317 316 316 316 315 315 314 314 313 314 314 314 313 313 312 312 312 312 312 312 312 312 312 312 313 313 313 313 313 314 314 313 313 312 311 310 309 308 307 305 304 304 303 302 302 301 299 298 297 297 296 295 294 292 291 290 289 288 287 286 286 286 285 285 285 284 284 283 282 282 281
314 315 316 317 318 318 319 319 319 319 319 318 318 318 317 316 316 316 316 315 315 314 314 313 314 314 314 314 313 313 313 313 313 313 313 313 314 315 316 317 318 318 318 317 317 317 316 315 314 313 312 311 309 308 307 306 306 306 305 304 303 302 301 301 300 299 299 298 297 295 294 292 291 289 288 287 286 285 284 284 283 283 283 282 282 282
315 316 316 317 318 318 318 319 319 318 318 318 318 317 317 316 316 315 315 315 315 314 314 313 314 314 314 314 314 313 313 313 313 313 314 315 317 318 320 321 321 321 321 320 320 319 318 317 316 315 313 312 310 309 308 308 308 308 308 307 306 306 305 305 304 304 303 302 301 300 298 297 295 293 292 290 289 287 287 286 285 285 284 284 284 284
315 316 316 317 317 318 318 318 318 317 317 317 317 317 316 316 315 315 315 314 314 314 313 314 314 314 315 314 314 314 314 314 314 315 316 317 320 322 323 323 323 323 322 322 321 321 320 319 317 316 314 312 311 310 310 310 311 311 311 310 310 309 309 309 308 307 306 305 304 303 301 300 298 297 295 294 293 292 291 290 289 289 289 288 288 288
315 315 316 316 316 317 317 317 317 317 317 317 316 316 315 315 314 314 314 314 313 313 313 314 314 314 315 314 314 314 314 315 315 316 317 320 323 325 325 325 324 324 324 323 323 322 321 320 318 316 314 312 311 311 311 312 313 313 313 313 313 313 312 312 311 309 308 306 305 303 302 301 300 298 297 296 295 295 294 293 293 293 293 293 292 292
315 315 315 316 316 317 317 317 316 316 316 316 316 315 315 314 313 313 313 313 313 313 313 313 313 314 314 315 315 315 315 316 316 316 318 321 324 326 327 326 326 326 326 326 325 324 323 321 319 316 314 313 312 312 313 314 314 315 316 316 315 315 314 313 312 310 308 306 304 303 302 301 299 298 298 297 297 296 296 296 296 297 297 297 297 296
315 315 315 316 316 317 317 317 316 316 316 316 315 314 314 313 313 313 312 312 312 312 312 313 313 313 314 314 315 316 316 316 316 316 317 320 324 327 328 327 327 328 328 327 327 325 323 321 319 316 314 313 312 312 313 314 316 317 317 317 317 316 315 313 311 309 308 306 305 303 302 302 301 300 300 300 300 301 301 302 303 303 304 304 305 304
315 316 316 316 316 317 317 316 316 315 315 315 314 313 312 312 312 312 312 311 311 312 312 312 313 313 314 314 316 316 316 316 315 315 317 320 324 328 329 329 329 329 329 328 327 326 323 321 318 315 313 312 312 313 314 315 316 317 318 319 318 317 315 313 311 309 308 307 306 305 305 304 304 304 305 306 307 308 309 310 312 313 313 314 314 314
315 316 316 316 316 316 316 315 315 314 314 313 312 312 311 311 311 311 311 311 311 311 312 312 313 313 314 315 316 317 316 315 315 315 316 320 325 328 330 330 329 329 329 329 327 325 323 320 317 314 312 311 312 312 313 314 316 318 319 319 318 317 315 313 311 310 309 309 308 308 308 308 308 309 310 311 313 315 317 319 320 319 317 317 317 315
315 315 315 315 315 315 315 314 314 314 313 312 311 311 311 311 311 310 310 310 310 311 311 312 312 312 313 314 316 317 317 316 315 315 317 320 325 328 330 329 329 329 329 329 327 325 322 319 316 314 312 311 311 312 313 314 316 318 319 319 319 317 315 314 312 312 311 311 311 310 310 311 312 313 314 316 318 321 322 322 320 317 314 313 312 311
314 314 314 314 314 313 313 313 313 312 311 310 310 310 310 310 310 309 309 309 309 310 310 311 311 312 313 315 316 317 317 316 316 316 317 321 325 328 329 329 328 329 329 329 327 325 322 319 316 314 312 311 311 312 313 314 316 318 319 319 319 317 316 314 313 313 313 313 312 312 313 313 314 316 317 319 322 323 322 319 317 315 314 313 312 311
312 313 313 312 312 312 311 311 311 311 310 309 308 308 308 308 308 308 308 308 308 308 309 309 310 311 313 315 316 317 318 317 317 317 318 321 325 327 328 328 328 328 329 329 327 325 323 320 317 314 313 312 312 312 313 315 316 318 319 320 319 318 316 315 314 314 314 314 313 313 314 315 317 319 319 320 320 318 314 312 311 310 311 311 311 310
311 311 311 311 310 310 310 310 309 309 308 307 307 307 307 307 307 306 307 307 307 307 308 308 309 311 313 314 316 317 318 318 318 318 319 321 324 326 328 328 327 328 328 328 327 325 323 321 318 315 314 313 313 313 314 315 317 319 320 320 320 318 317 316 315 315 314 314 314 314 316 318 320 322 322 322 319 313 308 306 304 304 304 304 304 305
310 310 310 309 308 308 308 308 307 307 306 305 305 305 305 305 305 306 306 306 306 307 307 308 309 311 312 314 315 316 317 318 318 319 319 321 323 325 327 327 326 327 327 327 327 326 324 322 319 316 315 314 314 315 316 316 318 319 320 321 320 319 318 317 316 316 315 315 316 318 320 322 323 324 323 322 320 315 310 306 303 301 300 299 299 299
308 308 308 308 307 306 306 306 305 305 304 304 303 303 303 304 304 305 305 305 305 306 307 308 309 311 312 313 314 315 316 317 318 318 319 319 322 324 325 325 325 325 327 327 327 326 325 323 320 316 315 315 315 315 316 317 318 319 320 321 320 320 318 318 317 317 317 318 320 322 324 325 325 324 323 321 319 317 314 311 309 306 304 302 300 299
306 306 306 305 305 304 304 304 303 303 302 302 301 301 302 302 303 303 303 304 304 305 307 308 309 310 311 312 312 313 314 315 316 317 317 318 320 322 323 324 324 325 326 327 327 327 326 323 319 316 315 315 315 316 316 317 318 319 320 321 321 320 320 319 320 320 320 322 324 326 327 326 325 323 321 319 317 316 315 314 313 312 311 309 307 305
305 305 304 304 303 302 302 302 301 301 300 300 300 300 300 301 301 301 302 303 304 305 306 306 307 308 309 309 309 309 311 312 313 314 314 316 318 320 321 322 323 325 326 327 327 327 326 323 319 316 315 315 315 315 315 316 318 319 320 321 321 321 321 321 322 323 324 326 327 328 327 326 324 322 320 318 317 316 316 315 315 315 315 315 315 313
305 305 304 303 302 301 301 300 300 300 299 299 299 300 300 300 299 299 300 300 301 301 300 301 304 306 306 306 305 305 307 309 310 311 312 314 316 318 320 321 323 325 326 327 327 327 326 323 319 316 314 314 314 314 314 316 317 319 321 322 323 323 323 324 324 325 327 328 328 329 328 327 325 323 322 320 320 319 318 318 318 318 318 319 320 319
306 305 304 303 303 302 301 301 300 300 299 299 298 298 297 296 295 295 295 294 293 294 296 300 303 303 302 301 300 301 303 305 307 308 310 313 315 317 319 321 323 325 326 327 327 327 327 324 320 316 313 313 313 313 314 315 317 319 321 323 324 324 325 325 326 327 328 328 329 329 329 328 327 325 324 323 323 322 321 321 320 320 321 321 322 322
305 305 304 304 303 302 301 301 301 300 299 298 297 295 293 291 290 290 290 289 290 292 297 300 299 298 296 294 295 297 299 302 305 307 309 312 314 317 319 321 324 325 326 326 327 327 327 325 321 316 313 312 312 313 313 315 317 320 322 324 325 325 326 326 327 328 328 329 329 330 329 328 327 326 325 324 323 322 321 320 320 321 321 322 323 323
307 306 305 304 303 302 301 301 300 300 299 297 295 293 292 290 289 289 290 290 292 294 295 294 292 291 290 290 292 294 297 300 303 306 309 312 314 316 319 322 325 326 327 326 326 326 327 326 321 317 314 313 313 313 314 315 318 321 323 325 326 326 326 327 328 328 329 330 330 330 329 328 326 325 323 322 320 319 319 318 318 319 320 322 323 323
309 309 307 305 303 301 300 300 299 299 297 296 294 292 291 290 291 291 292 293 292 291 289 287 286 286 287 289 291 293 296 300 303 306 310 313 315 317 320 324 326 327 327 326 325 325 326 325 322 319 316 315 314 314 315 317 319 322 325 327 327 327 327 327 328 329 330 330 329 328 327 325 324 322 321 319 318 317 316 316 316 317 319 321 322 323
311 311 310 308 305 303 302 301 300 298 296 295 293 291 289 288 287 287 288 289 289 288 286 285 285 285 286 288 290 294 297 301 304 307 310 313 315 318 322 325 327 328 328 326 325 325 325 325 323 320 318 317 316 316 317 319 321 324 326 328 328 328 327 328 328 329 329 329 328 326 324 323 321 320 319 318 317 315 315 314 315 316 317 319 320 321
311 311 311 309 307 305 303 301 300 298 297 295 293 291 289 286 282 280 280 283 285 286 285 285 285 285 287 288 291 295 299 302 305 308 311 314 317 320 324 327 328 328 327 326 325 324 325 325 324 322 319 319 319 319 319 321 323 325 327 329 328 328 327 327 328 328 328 327 325 323 322 320 319 318 317 316 315 314 314 313 314 315 316 317 319 320
310 311 310 309 308 306 303 299 297 296 295 295 294 293 291 288 284 281 279 280 281 281 282 282 283 285 287 290 293 296 299 302 306 309 313 317 320 323 325 327 328 328 327 325 324 323 324 324 324 323 321 321 321 322 322 322 324 326 327 328 328 327 327 326 326 326 325 324 322 320 319 318 318 317 316 315 314 313 313 313 313 314 315 316 317 318
310 310 309 309 307 306 303 299 295 292 291 291 292 293 292 291 289 287 285 283 281 280 281 282 284 286 289 291 294 296 299 303 308 312 316 319 322 324 326 327 327 327 326 325 323 323 323 323 323 322 321 321 322 324 324 324 325 327 328 328 327 326 325 325 325 324 323 322 320 319 318 318 317 316 315 314 314 313 313 313 313 314 315 315 316 318
310 309 309 308 307 306 305 301 297 293 290 289 289 290 291 291 291 291 290 288 287 286 286 287 288 289 291 293 295 297 301 305 310 314 318 321 323 324 326 326 326 326 325 324 323 322 322 322 322 321 320 320 322 325 325 325 326 327 328 328 327 325 325 324 324 323 322 320 319 319 318 318 317 316 315 314 314 314 314 315 315 315 315 316 316 317
311 310 310 309 308 307 306 304 300 295 291 288 287 287 288 289 290 291 291 291 291 291 292 293 294 294 295 295 297 300 304 308 312 317 320 322 323 324 325 325 325 325 324 323 323 323 322 322 322 321 321 322 323 325 326 326 327 328 328 328 327 325 324 324 323 323 322 321 320 319 319 318 317 317 316 316 316 317 317 318 318 317 317 317 317 317
312 311 311 310 309 308 307 305 302 297 293 288 286 285 285 286 287 287 288 290 292 294 295 297 297 298 297 298 299 303 306 310 314 318 321 323 323 324 324 324 325 325 324 323 323 323 323 323 322 322 322 324 325 327 327 327 327 328 329 329 328 327 326 325 324 324 323 322 321 320 319 318 318 319 320 320 320 321 321 321 321 320 319 319 318 317
312 312 312 311 310 308 306 304 302 298 294 289 285 283 281 280 280 281 284 288 291 294 297 298 297 297 297 298 301 304 308 312 316 320 322 323 323 323 323 324 324 324 324 323 323 323 323 323 323 323 324 326 327 329 329 328 328 329 331 332 331 330 328 327 327 325 324 322 320 319 318 319 321 323 325 326 325 325 325 325 324 323 322 321 320 319
313 312 312 311 309 307 305 303 301 298 295 290 286 282 279 277 275 276 279 283 288 292 294 295 295 295 296 299 302 306 310 314 318 321 322 323 323 323 323 323 323 323 323 323 323 323 323 324 324 325 326 327 329 330 330 329 329 330 331 334 334 333 331 329 328 327 325 323 321 320 320 322 326 330 332 331 330 329 330 330 330 330 328 326 324 321
313 312 311 310 308 306 304 302 301 299 297 293 289 285 282 279 277 276 277 280 283 287 289 290 291 293 296 300 304 308 312 316 319 321 322 322 322 322 322 322 322 322 322 322 323 323 324 324 325 326 327 328 330 331 332 331 330 330 332 334 336 336 334 332 330 328 326 324 323 324 325 329 333 337 337 335 333 332 333 335 337 338 337 334 332 329
312 311 311 309 307 305 304 302 301 300 298 295 292 288 285 282 280 279 279 281 283 285 286 287 289 293 297 302 306 311 315 318 320 321 321 321 321 321 321 321 321 321 321 322 322 323 324 325 326 327 328 328 330 331 332 332 331 332 333 335 337 339 338 335 332 330 329 328 328 329 332 336 339 340 339 336 334 333 335 337 341 344 345 343 341 339
312 311 310 309 307 306 304 303 302 301 300 297 294 291 288 285 284 283 283 285 285 286 286 287 291 296 301 305 308 312 316 318 319 320 320 319 319 319 319 320 320 320 320 321 322 323 324 326 327 328 329 329 330 331 332 333 333 333 335 336 338 339 339 337 335 333 332 333 334 335 337 340 342 342 341 338 335 334 336 339 343 346 348 348 348 348
312 311 310 309 308 307 306 305 304 302 301 299 297 294 293 292 291 290 290 289 287 287 288 290 295 300 304 307 310 313 316 317 318 318 318 318 318 318 318 318 319 319 320 321 322 323 325 328 329 331 331 330 330 331 333 334 335 336 337 338 339 339 339 339 337 336 336 338 339 340 341 342 343 344 343 341 338 336 338 342 346 349 351 353 355 358
311 311 310 309 309 308 307 307 305 304 303 300 299 299 300 300 300 299 296 292 290 291 293 296 299 303 305 307 310 313 315 315 316 316 316 316 317 317 317 317 318 318 319 321 322 324 328 330 333 334 333 332 331 332 334 336 338 339 340 341 341 341 342 341 341 341 341 342 343 343 343 344 346 348 349 347 343 340 341 347 353 357 360 2 5 9
312 311 311 311 311 310 309 308 307 306 305 303 303 304 305 305 303 300 297 296 296 298 299 301 302 304 306 307 310 312 314 313 313 314 314 315 315 315 315 316 317 318 319 321 323 326 330 335 338 339 337 335 334 334 336 338 341 342 343 344 344 345 346 345 345 345 345 345 345 345 346 348 350 353 356 355 350 346 347 355 4 11 13 14 16 19
312 313 313 313 313 312 310 309 308 308 306 304 302 300 299 298 297 296 296 297 298 299 299 300 301 304 307 308 310 311 312 312 312 311 312 312 313 313 314 315 316 318 319 321 324 327 332 338 342 343 342 340 338 338 339 341 343 345 346 346 347 348 350 351 351 349 347 346 346 347 349 352 355 359 2 2 357 352 355 7 17 23 24 25 25 25
312 313 314 314 314 312 311 310 309 308 307 302 295 290 290 291 292 293 294 295 295 296 296 299 302 305 307 309 309 310 311 311 311 310 310 310 311 312 313 314 316 318 320 322 324 328 333 340 344 346 346 344 343 342 343 344 344 345 347 349 351 353 356 357 355 352 349 348 348 349 351 355 359 4 9 9 4 360 6 17 25 29 29 29 29 27
313 314 315 315 314 313 311 310 309 309 308 304 297 290 288 288 288 289 290 292 293 294 297 301 304 306 307 308 308 309 309 310 310 309 309 310 311 312 313 315 316 318 321 323 325 328 333 341 347 350 348 347 346 345 346 346 345 346 348 351 355 358 -0 0 358 355 352 352 351 351 353 355 358 4 12 19 20 19 22 30 33 33 32 30 28 27
314 315 315 315 315 314 312 311 309 309 310 311 305 295 289 286 286 287 289 292 294 297 300 303 304 306 306 307 307 308 308 309 309 308 309 310 311 313 314 316 318 320 322 324 326 329 333 340 348 354 352 349 347 347 349 349 348 349 352 356 359 2 3 3 1 359 357 356 355 354 353 354 356 4 17 32 42 45 43 43 42 38 34 29 26 24
314 315 315 315 315 314 313 311 310 310 313 311 299 287 284 285 288 291 293 295 297 299 301 303 305 306 306 306 307 307 308 308 308 308 309 311 313 315 316 318 320 322 324 326 327 328 329 335 344 354 358 354 350 350 353 356 357 359 1 3 5 5 5 6 5 4 3 1 359 356 355 357 4 17 33 46 53 55 53 49 44 38 32 27 23 21
313 314 315 315 315 315 314 313 313 313 310 294 283 280 284 288 293 296 298 300 302 303 304 305 306 307 307 307 307 307 307 307 307 308 310 313 315 317 319 320 322 325 327 330 330 330 329 332 339 350 1 4 1 0 3 7 10 12 13 13 11 8 8 9 10 11 9 6 2 359 1 9 22 37 48 53 54 53 49 45 39 33 29 26 24 25